CW5763 Weather Reports


Display with metric or nautical units.
time (UTC)temp
F
wind
direction
speed
MPH
gust
MPH
rain 1hr
in
rain 24hr
in
rain mn
in
humidity
%
barometer
mb
20260904052006 66 286 3.0 20.0 0.00 0.02 0.02 96 1013.9
20260904051005 66 302 6.0 15.0 0.00 0.02 0.02 96 1013.9
20260904050006 66 239 5.0 15.0 0.00 0.02 0.02 96 1013.9
20260904045006 66 268 5.0 20.0 0.00 0.02 0.02 96 1014.0
20260904043006 66 322 5.0 15.0 0.00 0.02 0.02 96 1014.1
20260904042005 66 186 3.0 20.0 0.00 0.02 0.02 96 1014.2
20260904041006 66 185 7.0 17.0 0.00 0.02 0.02 96 1014.3
20260904040006 66 194 4.0 18.0 0.01 0.02 0.02 96 1014.5
20260904035006 66 176 6.0 17.0 0.01 0.02 0.02 96 1014.9
20260904034006 66 206 5.0 17.0 0.02 0.02 0.02 96 1015.0
20260904033006 66 221 5.0 12.0 0.02 0.02 0.02 96 1015.1
20260904031006 66 233 5.0 15.0 0.02 0.02 0.02 96 1015.2
20260904030006 66 352 4.0 16.0 0.01 0.02 0.01 96 1015.3
20260904025006 66 182 3.0 15.0 0.01 0.02 0.01 97 1015.4
20260904024006 66 306 3.0 14.0 0.00 0.01 0.00 97 1015.4
20260904023005 66 231 4.0 18.0 0.00 0.01 0.00 97 1015.4
20260904022006 66 274 6.0 18.0 0.00 0.01 0.00 97 1015.5
20260904021006 66 27 3.0 10.0 0.00 0.01 0.00 97 1015.5
20260904020006 66 168 2.0 10.0 0.00 0.01 0.00 97 1015.7
20260904013005 66 282 5.0 15.0 0.00 0.01 0.00 97 1015.8
20260904012006 66 232 5.0 17.0 0.00 0.01 0.00 97 1015.8
20260904011006 66 257 4.0 17.0 0.00 0.01 0.00 97 1015.8
20260904005005 66 223 4.0 12.0 0.00 0.01 0.00 97 1016.1
20260904004005 65 251 5.0 12.0 0.00 0.01 0.00 97 1016.3
20260904003006 65 230 5.0 12.0 0.00 0.01 0.00 96 1016.4
20260904002005 65 238 4.0 14.0 0.00 0.01 0.00 96 1016.6
20260904001005 65 313 5.0 18.0 0.00 0.01 0.00 96 1016.6
20260904000006 65 264 6.0 16.0 0.00 0.01 0.00 96 1016.5
20260903235005 66 258 2.0 20.0 0.00 0.01 0.00 96 1016.5
20260903234005 66 269 6.0 18.0 0.00 0.01 0.00 96 1016.5
20260903233005 66 197 5.0 16.0 0.00 0.01 0.00 96 1016.6
20260903232005 66 263 4.0 12.0 0.00 0.01 0.00 96 1016.8
20260903230005 66 222 5.0 14.0 0.00 0.01 0.00 96 1016.9
20260903225005 66 224 3.0 14.0 0.00 0.01 0.01 96 1017.0
20260903224005 66 212 4.0 16.0 0.00 0.01 0.01 95 1017.0
20260903221005 66 306 2.0 9.0 0.00 0.01 0.01 95 1017.2
20260903220005 66 263 4.0 12.0 0.00 0.01 0.01 95 1017.5
20260903214005 66 275 3.0 12.0 0.00 0.01 0.01 95 1018.0
20260903212005 66 307 2.0 10.0 0.00 0.01 0.01 95 1018.2
20260903211005 66 343 3.0 15.0 0.00 0.01 0.01 95 1018.4
20260903205005 66 272 6.0 18.0 0.00 0.01 0.01 95 1018.3
20260903204005 66 267 5.0 14.0 0.00 0.01 0.01 95 1018.1
20260903203005 66 308 3.0 12.0 0.00 0.01 0.01 95 1018.1
20260903202005 66 302 3.0 10.0 0.00 0.01 0.01 95 1018.1
20260903201005 66 279 5.0 12.0 0.00 0.01 0.01 95 1018.3
20260903200005 66 292 2.0 12.0 0.00 0.01 0.01 95 1018.4
20260903194006 66 253 2.0 12.0 0.00 0.01 0.01 95 1018.4
20260903193005 66 277 3.0 12.0 0.00 0.01 0.01 95 1018.5
20260903191005 66 293 4.0 14.0 0.00 0.01 0.01 95 1018.5
20260903190005 67 275 4.0 12.0 0.00 0.01 0.01 95 1018.5
20260903185005 67 271 3.0 15.0 0.00 0.02 0.01 95 1018.5
20260903184005 67 296 3.0 12.0 0.00 0.02 0.01 94 1018.5
20260903183005 67 253 3.0 12.0 0.00 0.02 0.01 94 1018.4
20260903182005 67 223 5.0 12.0 0.00 0.02 0.01 94 1018.5
20260903180005 67 265 3.0 17.0 0.00 0.02 0.01 94 1018.5
20260903175005 67 268 6.0 17.0 0.00 0.02 0.01 93 1018.4
20260903174005 67 206 5.0 12.0 0.00 0.02 0.01 93 1018.5
20260903173006 68 281 3.0 12.0 0.00 0.02 0.01 93 1018.5
20260903172005 68 277 3.0 12.0 0.00 0.02 0.01 93 1018.6
20260903171005 68 184 3.0 12.0 0.00 0.03 0.01 93 1018.7
20260903170005 68 261 5.0 15.0 0.00 0.03 0.01 93 1018.6
20260903164004 68 262 5.0 9.0 0.00 0.03 0.01 92 1018.7
20260903163005 68 272 3.0 14.0 0.00 0.04 0.01 92 1018.7
20260903162004 68 263 5.0 17.0 0.00 0.04 0.01 92 1018.7
20260903161004 68 248 4.0 15.0 0.00 0.04 0.01 92 1018.8
20260903160005 68 284 4.0 15.0 0.00 0.04 0.01 92 1018.8
20260903155004 68 293 3.0 10.0 0.00 0.04 0.01 92 1018.9
20260903154005 68 205 3.0 12.0 0.00 0.04 0.01 92 1019.0
20260903153004 68 269 4.0 12.0 0.00 0.05 0.01 92 1019.0
20260903150005 68 214 5.0 14.0 0.00 0.05 0.01 92 1019.2
20260903145004 68 218 5.0 18.0 0.00 0.06 0.01 92 1019.1
20260903144006 68 299 5.0 14.0 0.00 0.06 0.01 92 1019.3
20260903142004 68 294 4.0 12.0 0.00 0.06 0.01 92 1019.4
20260903140004 68 268 5.0 12.0 0.00 0.06 0.01 93 1019.4
20260903135004 68 231 4.0 12.0 0.00 0.06 0.01 93 1019.5
20260903132005 68 198 3.0 12.0 0.00 0.06 0.01 93 1019.6
20260903131004 68 255 6.0 16.0 0.00 0.06 0.01 93 1019.7
20260903130004 68 263 3.0 14.0 0.00 0.06 0.01 93 1019.7
20260903125004 68 202 6.0 14.0 0.00 0.06 0.01 94 1019.6
20260903124004 68 255 2.0 12.0 0.00 0.06 0.01 93 1019.8
20260903122004 68 257 2.0 15.0 0.00 0.06 0.01 93 1019.7
20260903121004 68 253 4.0 15.0 0.00 0.06 0.01 92 1019.7
20260903120004 68 262 2.0 12.0 0.00 0.06 0.01 93 1019.6
20260903114004 68 238 3.0 14.0 0.00 0.06 0.01 93 1019.6
20260903113004 68 184 3.0 12.0 0.00 0.06 0.01 93 1019.7
20260903112004 68 280 4.0 12.0 0.00 0.06 0.01 93 1019.8
20260903111004 68 217 3.0 12.0 0.00 0.06 0.01 93 1019.7
20260903110004 68 191 3.0 12.0 0.00 0.06 0.01 93 1019.8
20260903105004 68 295 4.0 12.0 0.00 0.06 0.01 93 1019.6
20260903104005 68 249 3.0 12.0 0.00 0.06 0.01 93 1019.6
20260903103004 68 313 4.0 12.0 0.00 0.06 0.01 92 1019.8
20260903102006 68 288 5.0 12.0 0.00 0.06 0.01 91 1019.7
20260903101004 69 254 3.0 12.0 0.00 0.06 0.01 91 1019.7
20260903100004 69 303 5.0 14.0 0.00 0.06 0.01 90 1019.8
20260903095004 69 305 6.0 12.0 0.00 0.06 0.01 89 1019.6
20260903094004 69 313 3.0 12.0 0.00 0.06 0.01 91 1019.6
20260903093004 68 302 6.0 15.0 0.00 0.06 0.01 92 1019.4
20260903091005 67 302 5.0 14.0 0.00 0.06 0.01 94 1019.4
20260903090006 67 293 5.0 15.0 0.00 0.06 0.01 95 1019.5
20260903085004 67 241 5.0 15.0 0.00 0.06 0.01 94 1019.2
20260903084006 67 283 5.0 15.0 0.00 0.06 0.01 94 1019.3
20260903082006 67 253 3.0 12.0 0.00 0.06 0.01 93 1019.1
20260903080006 67 308 4.0 14.0 0.00 0.06 0.01 95 1019.2
20260903075005 67 271 3.0 12.0 0.00 0.06 0.01 95 1019.0
20260903074006 66 264 3.0 12.0 0.00 0.06 0.01 95 1018.9
20260903073006 66 285 4.0 10.0 0.00 0.06 0.01 95 1018.9
20260903072006 66 249 3.0 12.0 0.00 0.06 0.01 95 1018.9
20260903071006 66 268 3.0 9.0 0.00 0.06 0.01 95 1019.0
20260903070007 66 294 5.0 12.0 0.00 0.06 0.01 95 1018.9
20260903065006 66 281 5.0 12.0 0.00 0.06 0.01 95 1019.0
20260903064006 66 296 5.0 12.0 0.00 0.06 0.01 95 1018.9
20260903063006 66 308 5.0 17.0 0.00 0.06 0.01 95 1018.9
20260903062006 66 298 6.0 12.0 0.00 0.06 0.01 95 1018.8
20260903061006 66 295 6.0 12.0 0.00 0.06 0.01 95 1018.8
20260903055006 65 295 5.0 12.0 0.00 0.06 0.01 95 1018.6
20260903054005 65 306 6.0 12.0 0.00 0.06 0.01 95 1018.5
20260903053006 65 304 6.0 12.0 0.00 0.06 0.01 95 1018.4